Location: Averill Park
(42.6340°N, 73.5537°W)
Time: 22:31:02
(UTC+00:00)

CUTE-I - Visible Passes

Search period start: 15 February 2026 00:00
Search period end: 25 February 2026 00:00
Orbit: 804 x 818 km, 98.7° (Epoch: 15 February)

Date Brightness Start Highest point End Pass type
(mag) Time Alt. Az. Time Alt. Az. Time Alt. Az.
15 Feb ? 10:59:09 10° NNE 11:04:20 53° E 11:09:28 10° S visible
16 Feb ? 00:04:47 10° WSW 00:06:27 11° W 00:08:07 10° WNW visible
16 Feb ? 10:36:03 10° NNE 10:40:48 32° E 10:45:29 10° SSE visible
16 Feb ? 23:38:59 10° SW 23:42:44 19° W 23:46:30 10° NW visible
17 Feb ? 10:13:19 10° NE 10:17:10 20° E 10:20:59 10° SE visible
17 Feb ? 23:14:26 10° SSW 23:19:06 31° W 23:23:48 10° NW visible
18 Feb ? 09:51:29 10° ENE 09:53:27 12° E 09:55:25 10° ESE visible
18 Feb ? 22:50:24 10° S 22:55:34 50° W 23:00:44 10° NNW visible
19 Feb ? 11:05:20 10° NNE 11:10:34 60° ESE 11:15:46 10° S visible
20 Feb ? 10:42:10 10° NNE 10:47:03 37° E 10:51:53 10° SSE visible
20 Feb ? 23:45:40 10° SW 23:49:02 17° W 23:52:25 10° NW visible
21 Feb ? 10:19:18 10° NE 10:23:27 23° E 10:27:33 10° SE visible
21 Feb ? 23:20:54 10° SSW 23:25:23 27° W 23:29:53 10° NW visible
22 Feb ? 09:57:05 10° ENE 09:59:45 14° E 10:02:24 10° ESE visible
22 Feb ? 22:56:45 10° S 23:01:48 44° W 23:06:54 10° NNW visible
23 Feb ? 11:11:30 10° NNE 11:16:48 69° ESE 11:22:02 10° S visible
24 Feb ? 10:48:17 10° NNE 10:53:18 42° E 10:58:16 10° S visible
24 Feb ? 23:52:25 10° WSW 23:55:19 15° W 23:58:13 10° WNW visible
